Regional Weather Roundup
Issued by NWS Jackson, KY

Home | Current Version | Previous Version | Text Only | Print | Product List | Glossary Off
Versions: 1 2 3 4 5 6 7 8 9 10 11 12 13 14 15 16 17 18 19 20 21 22 23 24 25 26 27 28 29 30 31 32 33 34 35 36 37 38 39 40 41 42 43 44 45 46 47 48 49 50

000
ASUS43 KJKL 231911
RWRJKL

EAST KENTUCKY HOURLY WEATHER ROUNDUP
NATIONAL WEATHER SERVICE JACKSON KY
300 PM EDT WED JUL 23 2014

NOTE: "FAIR" INDICATES FEW OR NO CLOUDS BELOW 12,000 FEET WITH
NO SIGNIFICANT WEATHER AND/OR OBSTRUCTIONS TO VISIBILITY.

* THESE REPORTS ARE NOT UNDER NWS QUALITY CONTROL AND MAY NOT
  REPORT WEATHER SUCH AS PRECIPITATION AND FOG.

KYZ079-080-083-085-087-088-110-112-115-119-120-232000
...EASTERN KENTUCKY...

CITY           SKY/WX    TMP DP  RH WIND       PRES   REMARKS
JACKSON        PTSUNNY   84  71  65 CALM      30.04F
LONDON         TSTM      76  69  79 E9        30.05F
SOMERSET*      PTSUNNY   84  70  61 NW10      30.03F
MONTICELLO*    MOSUNNY   90  72  55 W6        30.03F HX  97
WILLIAMSBURG*  MOSUNNY   82  73  74 CALM      30.04
MIDDLESBORO*   PTSUNNY   77  73  87 SE5       30.07S
HARLAN APT*    CLOUDY    79  70  73 MISG      30.06F
HAZARD APT*    CLEAR     84  72  65 SW6       30.03
BLACK MTN*       N/A     68  68 100 S3          N/A
PIKEVILLE APT* PTSUNNY   84  72  65 CALM      30.03F
BIG SANDY*     MOCLDY    86  73  64 W7        30.02S HX  93
MOREHEAD APT*    N/A     81  66  61 W9G28     30.05F
$$

KYZ035-036-041-042-044-050-067-078-099-232000
...CENTRAL KENTUCKY...

CITY           SKY/WX    TMP DP  RH WIND       PRES   REMARKS
MT STERLING*   LGT RAIN  73  70  88 E3        30.03F
FLEMING/MASON* LGT RAIN  79  70  73 S5        29.99F
DANVILLE*      MOSUNNY   82  72  69 NE5       30.02F
RICHMOND*      MOSUNNY   84  70  61 CALM      30.02F
LEXINGTON      PTSUNNY   85  70  60 SE8       29.99F
FRANKFORT      CLOUDY    83  72  69 CALM      29.99F
$$

KYZ091>093-OHZ055-061-077-WVZ005-015-034-035-042-232000
...SOUTHERN OHIO/WEST VIRGINIA...

CITY           SKY/WX    TMP DP  RH WIND       PRES   REMARKS
COVINGTON      CLOUDY    78  69  73 SW10      30.00R
COLUMBUS       PTSUNNY   82  67  60 NW15      30.00F
DAYTON         CLOUDY    78  68  71 NW9       30.03R
WILMINGTON     LGT RAIN  74  63  68 NW13G30   30.00S
HUNTINGTON     MOSUNNY   88  69  53 NW6       29.98F HX  92
CHARLESTON     PTSUNNY   88  70  55 W16       29.98S HX  93
PINEVILLE*     MOSUNNY   88  73  61 MISG      30.09F HX  96
BECKLEY        MOSUNNY   83  67  58 SW12      30.08F
BLUEFIELD      CLOUDY    79  67  66 W9        30.14S
$$

VAZ002-007-008-TNZ017-027-036-066-071-232000
...SOUTHWEST VIRGINIA/EAST TENNESSEE...

CITY           SKY/WX    TMP DP  RH WIND       PRES   REMARKS
WISE*          PTSUNNY   73  66  78 S7        30.14F
JONESVILLE*    HVY RAIN  72  72 100 CALM      30.12F
ABINGDON*      CLOUDY    81  71  72 W6        30.10F
BRISTOL        PTSUNNY   81  66  60 W8        30.08F
KNOXVILLE      PTSUNNY   82  72  71 W7        30.05F
OAK RIDGE      HVY RAIN  75  69  81 N12G18    30.09R VSB 3/4
CROSSVILLE     RAIN      70  68  93 VRB6      30.12F FOG
NASHVILLE      PTSUNNY   90  70  51 S6        30.02F HX  95
$$

...KEY TO REMARKS...
VSB - VISIBILITY IN MILES
WCI - WIND CHILL INDEX
HX  - HEAT INDEX

$$


USA.gov is the U.S. government's official web portal to all federal, state and local government web resources and services.